Weather History for Luqa, Malta

Change the Weather History Date:

Sunday, November 11, 2012

  Actual Average Record
Temperature  
Mean Temperature 72 °F -  
Max Temperature 76 °F 66 °F 77 °F (2000)
Min Temperature 69 °F 55 °F 55 °F (2006)
Cooling Degree Days 8    
Growing Degree Days 22 (Base 50)    
Moisture  
Dew Point 63 °F    
Average Humidity 73    
Maximum Humidity 78    
Minimum Humidity 59    
Precipitation  
Precipitation 0.00 in 0.12 in - ()
Sea Level Pressure  
Sea Level Pressure 30.02 in    
Wind  
Wind Speed 16 mph ()    
Max Wind Speed 24 mph    
Max Gust Speed 34 mph    
Visibility 6.8 miles    
Events      
Averages and records for this station are not official NWS values.
T = Trace of Precipitation, MM = Missing Value Source: Averaged Metar Reports

Daily Weather History Graph

Daily Weather History Graph

Search for Another Location

Airport:

Trip Planner

Search our weather history database for the weather conditions in past years. The results will help you decide how hot, cold, wet, or windy it might be!

Date:

Astronomy

Nov. 11, 2012 Rise Set
Actual Time 6:34 AM CET 4:57 PM CET
Civil Twilight 6:07 AM CET 5:24 PM CET
Nautical Twilight 5:36 AM CET 5:55 PM CET
Astronomical Twilight 5:06 AM CET 6:25 PM CET
Moon 3:32 AM CET (11/11) 3:06 PM CET (11/11)
Length of Visible Light 11h 16m
Length of Day
10h 22m
Waning Crescent, 9% of the Moon is Illuminated
Nov 11
Waning Crescent
Nov 13
New
Nov 20
First Quarter
Nov 28
Full
Dec 6
Last Quarter

Hourly Weather History & Observations

Time (CET) Temp. Dew Point Humidity Pressure Visibility Wind Dir Wind Speed Gust Speed Precip Events Conditions
12:15 AM 69.8 °F 60.8 °F 73% 30.04 in - SSE 15.0 mph - N/A   Clear
12:45 AM 69.8 °F 60.8 °F 73% 30.04 in - SSE 15.0 mph - N/A   Clear
1:00 AM 69 °F 62 °F 71% 30.03 in 9 mi SSE 15.0 mph - -  
1:15 AM 69.8 °F 60.8 °F 73% 30.04 in - SSE 12.7 mph - N/A   Clear
1:45 AM 69.8 °F 62.6 °F 78% 30.04 in - South 12.7 mph - N/A   Clear
2:15 AM 69.8 °F 62.6 °F 78% 30.04 in - South 12.7 mph - N/A   Clear
2:45 AM 69.8 °F 62.6 °F 78% 30.01 in - SSE 16.1 mph - N/A   Clear
3:15 AM 69.8 °F 62.6 °F 78% 30.01 in - SSE 16.1 mph - N/A   Clear
3:45 AM 69.8 °F 62.6 °F 78% 30.01 in 6.2 mi SSE 15.0 mph - N/A   Partly Cloudy
4:00 AM 70 °F 63 °F 73% 30.01 in 9 mi SSE 13.8 mph - -   Scattered Clouds
4:15 AM 69.8 °F 62.6 °F 78% 30.01 in 6.2 mi SSE 13.8 mph - N/A   Partly Cloudy
4:45 AM 69.8 °F 62.6 °F 78% 30.01 in 6.2 mi SSE 16.1 mph - N/A   Scattered Clouds
5:15 AM 69.8 °F 62.6 °F 78% 30.01 in 6.2 mi SSE 15.0 mph - N/A   Partly Cloudy
5:45 AM 69.8 °F 62.6 °F 78% 30.01 in 6.2 mi SSE 16.1 mph - N/A   Scattered Clouds
6:15 AM 69.8 °F 62.6 °F 78% 30.01 in 6.2 mi SSE 16.1 mph - N/A   Scattered Clouds
6:45 AM 69.8 °F 62.6 °F 78% 30.01 in 6.2 mi SSE 16.1 mph - N/A   Partly Cloudy
7:00 AM 70 °F 64 °F 74% 30.02 in 12 mi SSE 16.1 mph - -  
7:15 AM 69.8 °F 62.6 °F 78% 30.01 in 6.2 mi SSE 16.1 mph - N/A   Scattered Clouds
7:45 AM 71.6 °F 62.6 °F 73% 30.04 in 6.2 mi SSE 17.3 mph - N/A   Scattered Clouds
8:15 AM 71.6 °F 62.6 °F 73% 30.04 in 6.2 mi SSE 16.1 mph - N/A   Scattered Clouds
8:45 AM 73.4 °F 62.6 °F 69% 30.04 in 6.2 mi SSE 18.4 mph - N/A   Scattered Clouds
9:15 AM 73.4 °F 62.6 °F 69% 30.04 in 6.2 mi SSE 19.6 mph - N/A   Scattered Clouds
9:45 AM 73.4 °F 64.4 °F 73% 30.06 in 6.2 mi South 19.6 mph - N/A   Scattered Clouds
10:00 AM 75 °F 64 °F 61% 30.06 in 9 mi South 18.4 mph - -   Partly Cloudy
10:15 AM 75.2 °F 64.4 °F 69% 30.06 in 6.2 mi South 17.3 mph - N/A   Scattered Clouds
10:45 AM 75.2 °F 64.4 °F 69% 30.06 in 6.2 mi South 18.4 mph - N/A   Scattered Clouds
11:15 AM 75.2 °F 64.4 °F 69% 30.04 in 6.2 mi South 17.3 mph - N/A   Scattered Clouds
11:45 AM 75.2 °F 64.4 °F 69% 30.04 in 6.2 mi South 21.9 mph - N/A   Scattered Clouds
12:15 PM 75.2 °F 64.4 °F 69% 30.04 in 6.2 mi South 18.4 mph 29.9 mph N/A   Scattered Clouds
12:45 PM 75.2 °F 64.4 °F 69% 30.01 in 6.2 mi South 20.7 mph - N/A   Scattered Clouds
1:00 PM 76 °F 64 °F 59% 30.01 in 9 mi South 20.7 mph - -  
1:15 PM 75.2 °F 64.4 °F 69% 30.01 in 6.2 mi South 19.6 mph - N/A   Scattered Clouds
1:45 PM 75.2 °F 64.4 °F 69% 30.01 in 6.2 mi South 20.7 mph - N/A   Partly Cloudy
2:15 PM 75.2 °F 62.6 °F 65% 30.01 in - South 19.6 mph - N/A   Clear
2:45 PM 75.2 °F 64.4 °F 69% 29.98 in 6.2 mi South 23.0 mph - N/A   Partly Cloudy
3:15 PM 75.2 °F 62.6 °F 65% 29.98 in 6.2 mi South 20.7 mph - N/A   Partly Cloudy
3:45 PM 73.4 °F 62.6 °F 69% 29.98 in 6.2 mi South 20.7 mph 32.2 mph N/A   Partly Cloudy
4:00 PM 74 °F 63 °F 59% 29.98 in 9 mi SSE 21.9 mph - -   Scattered Clouds
4:15 PM 73.4 °F 62.6 °F 69% 29.98 in 6.2 mi SSE 21.9 mph - N/A   Partly Cloudy
4:45 PM 71.6 °F 62.6 °F 73% 29.98 in - SSE 19.6 mph 31.1 mph N/A   Clear
5:15 PM 71.6 °F 62.6 °F 73% 29.98 in - SSE 21.9 mph - N/A   Clear
5:45 PM 71.6 °F 62.6 °F 73% 30.01 in - SSE 24.2 mph - N/A   Clear
6:15 PM 71.6 °F 64.4 °F 78% 30.01 in - SSE 20.7 mph - N/A   Clear
6:45 PM 71.6 °F 62.6 °F 73% 30.01 in - SSE 23.0 mph - N/A   Clear
7:00 PM 71 °F 64 °F 71% 30.01 in 7 mi SSE 21.9 mph - -  
7:15 PM 71.6 °F 64.4 °F 78% 30.01 in - SSE 20.7 mph - N/A   Clear
7:45 PM 71.6 °F 64.4 °F 78% 30.01 in - SSE 21.9 mph 34.5 mph N/A   Clear
8:15 PM 71.6 °F 62.6 °F 73% 30.01 in - SSE 23.0 mph - N/A   Clear
8:45 PM 71.6 °F 62.6 °F 73% 30.04 in - SSE 21.9 mph 33.4 mph N/A   Clear
9:15 PM 71.6 °F 62.6 °F 73% 30.04 in - SSE 21.9 mph - N/A   Clear
9:45 PM 71.6 °F 64.4 °F 78% 30.04 in - SSE 21.9 mph - N/A   Clear
10:00 PM 72 °F 64 °F 68% 30.04 in 7 mi SSE 23.0 mph - -   Clear
10:15 PM 71.6 °F 64.4 °F 78% 30.04 in - SSE 23.0 mph - N/A   Clear
10:45 PM 71.6 °F 64.4 °F 78% 30.04 in - SSE 19.6 mph - N/A   Clear
11:08 PM 71.6 °F 64.4 °F 78% 30.04 in 6.2 mi SSE 20.7 mph 32.2 mph N/A   Partly Cloudy
11:15 PM 71.6 °F 64.4 °F 78% 30.04 in 6.2 mi SSE 21.9 mph - N/A   Partly Cloudy
11:45 PM 71.6 °F 64.4 °F 78% 30.04 in - SSE 20.7 mph - N/A   Clear